Details for Ryanair at LDZD




Go Back


Latest METAR
Local Time

LDZD 221100Z 19008KT 150V240 9999 FEW030 26/19 Q1018 NOSIG
22/09/2018, 13:20:39

Description
Results
Ryanair Logo
Number of Pilots based at LDZD
0 Pilots Based here
Number of Ryanair Flights Departed from LDZD
0 Flights Departed
Number of Ryanair Flights Arrived at LDZD
0 Flights Arrived
Number of Ryanair Schedules Departing from LDZD
20 Schedules
Number of Ryanair Schedules Arriving at LDZD
18 Schedules
Number of Ryanair Schedules Departing from LDZD availible today
7 Schedules Today
Number of Ryanair Schedules Arriving at LDZD availible today
7 Schedules Today
Average Landing Rate at LDZD
0 fpm
Ryanair Average Landing Rate at LDZD
0 fpm
Total Fuel Purchased at LDZD by Ryanair
0.00 kgs / 0.00 lbs

Pilots Based at LDZD


Pilot ID
Pilot Name
Pilot Rank
No. of Flights
No. of Flying Hours
There are no pilots assigned to this hub!   Will you be the first?
Content